Tracking 23611 objects as of 17-Sep-2021
HD Live streaming from Space Station
objects crossing your sky now
Track INSPIRATION-4

DMSP 5D-2 F13 DEB

Track DMSP 5D-2 F13 DEB now!
10-day predictions


NORAD ID: 40409
Int'l Code: 1995-015W
Perigee: 835.4 km
Apogee: 840.2 km
Inclination: 98.8 °
Period: 101.5 minutes
Semi major axis: 7208 km
RCS: Unknown
Launch date: March 24, 1995
Source: United States (US)
Launch site: AIR FORCE WESTERN TEST RANGE (AFWTR)

Note: This is SATELLITE DEBRIS
aabbcc
Your satellite tracking list
Your tracking list is empty




NASA's NSSDC Master Catalog

Two Line Element Set (TLE):
1 40409U 95015W   21259.99833290  .00000404  00000-0  21693-3 0  9991
2 40409  98.8024 267.2755 0003369  60.8690 299.2822 14.18426116339322
Source of the keplerian elements: AFSPC